CES3279 ZPLJ-ZGGG

Flight info

Callsign CES3279
Flight time N/A
Altitude 38100
Route DAL21D DAL W162 BUBSU/K0846S1190 W146 GULOT A599 GYA GYA1
Aircraft B737/M-SDE2E3FGHIRWXY/LB1

Departure

Time 2026-05-01 12:29
Airport Lijiang Sanyi International Airport (ZPLJ)

Arrival

Time N/A
Airport Guangzhou Baiyun International Airport (ZGGG)
Time Latitude Longitude Altitude Speed Heading
2026-05-01 11:57 26.66944 100.24497 7194 ft 0 kts 158°
2026-05-01 12:20 26.66952 100.24494 7221 ft 4 kts 158°
2026-05-01 12:20 26.66969 100.24486 7233 ft 4 kts 158°
2026-05-01 12:20 26.66994 100.24475 7230 ft 4 kts 157°
2026-05-01 12:21 26.67019 100.24463 7232 ft 4 kts 158°
2026-05-01 12:21 26.67044 100.24453 7233 ft 4 kts 163°
2026-05-01 12:21 26.67065 100.24447 7232 ft 4 kts 174°
2026-05-01 12:21 26.67091 100.24451 7231 ft 3 kts 196°
2026-05-01 12:22 26.67094 100.24452 7231 ft 1 kts 196°
2026-05-01 12:24 26.67073 100.24445 7232 ft 6 kts 196°
2026-05-01 12:24 26.67028 100.24430 7229 ft 8 kts 196°
2026-05-01 12:25 26.66967 100.24410 7231 ft 10 kts 198°
2026-05-01 12:25 26.66802 100.24352 7228 ft 14 kts 196°
2026-05-01 12:25 26.66701 100.24318 7231 ft 16 kts 197°
2026-05-01 12:26 26.66588 100.24279 7231 ft 18 kts 197°
2026-05-01 12:26 26.66385 100.24177 7230 ft 13 kts 267°
2026-05-01 12:26 26.66392 100.24143 7231 ft 0 kts 290°
2026-05-01 12:27 26.66392 100.24142 7231 ft 1 kts 290°
2026-05-01 12:27 26.66409 100.24092 7233 ft 5 kts 290°
2026-05-01 12:28 26.66467 100.24053 7232 ft 7 kts 24°
2026-05-01 12:28 26.66525 100.24075 7234 ft 16 kts 17°
2026-05-01 12:28 26.67704 100.24475 7229 ft 155 kts 16°
2026-05-01 12:29 26.68881 100.24764 7618 ft 168 kts
2026-05-01 12:29 26.70033 100.25060 8421 ft 180 kts 11°
2026-05-01 12:29 26.72622 100.25856 9321 ft 215 kts
2026-05-01 12:30 26.75884 100.26848 9733 ft 270 kts 10°
2026-05-01 12:30 26.77760 100.27412 10140 ft 287 kts 10°
2026-05-01 12:30 26.79808 100.28019 10266 ft 315 kts 11°
2026-05-01 12:31 26.82025 100.28669 10444 ft 344 kts 11°
2026-05-01 12:31 26.84429 100.29372 10643 ft 371 kts 11°
2026-05-01 12:31 26.86951 100.30108 11132 ft 385 kts 11°
2026-05-01 12:31 26.89597 100.30887 11972 ft 388 kts 12°
2026-05-01 12:32 26.91825 100.31980 12684 ft 399 kts 32°
2026-05-01 12:32 26.95151 100.37025 14089 ft 418 kts 71°
2026-05-01 12:32 26.95650 100.40233 14755 ft 421 kts 90°
2026-05-01 12:33 26.95271 100.43477 15435 ft 419 kts 109°
2026-05-01 12:33 26.94017 100.46405 16047 ft 418 kts 129°
2026-05-01 12:33 26.92025 100.48742 16632 ft 414 kts 148°
2026-05-01 12:33 26.89611 100.50477 17296 ft 413 kts 154°
2026-05-01 12:34 26.87124 100.52111 17849 ft 417 kts 154°
2026-05-01 12:34 26.84628 100.53779 18340 ft 419 kts 153°
2026-05-01 12:34 26.82255 100.55720 18782 ft 428 kts 143°
2026-05-01 12:34 26.80047 100.57985 19241 ft 433 kts 141°
2026-05-01 12:35 26.77855 100.60316 19682 ft 437 kts 141°
2026-05-01 12:35 26.75635 100.62660 20103 ft 441 kts 142°
2026-05-01 12:35 26.73377 100.65004 20563 ft 443 kts 142°
2026-05-01 12:35 26.71098 100.67334 20990 ft 446 kts 143°
2026-05-01 12:36 26.68792 100.69674 21385 ft 449 kts 143°
2026-05-01 12:36 26.66470 100.72030 21795 ft 453 kts 142°
2026-05-01 12:36 26.64191 100.74488 22170 ft 458 kts 140°
2026-05-01 12:36 26.61958 100.77049 22543 ft 461 kts 139°
2026-05-01 12:37 26.59745 100.79655 22913 ft 465 kts 139°
2026-05-01 12:37 26.57518 100.82292 23221 ft 468 kts 139°
2026-05-01 12:37 26.55271 100.84942 23501 ft 471 kts 139°
2026-05-01 12:37 26.53007 100.87596 23741 ft 473 kts 139°
2026-05-01 12:38 26.50729 100.90248 24018 ft 473 kts 139°
2026-05-01 12:38 26.48445 100.92896 24278 ft 475 kts 139°
2026-05-01 12:38 26.46143 100.95557 24510 ft 476 kts 139°
2026-05-01 12:38 26.43839 100.98215 24704 ft 479 kts 138°
2026-05-01 12:39 26.41508 101.00901 24881 ft 483 kts 139°
2026-05-01 12:39 26.39163 101.03603 25115 ft 485 kts 139°
2026-05-01 12:39 26.36816 101.06306 25392 ft 485 kts 139°
2026-05-01 12:39 26.34463 101.09015 25625 ft 487 kts 139°
2026-05-01 12:40 26.32107 101.11726 25903 ft 488 kts 139°
2026-05-01 12:40 26.29742 101.14446 26155 ft 489 kts 139°
2026-05-01 12:40 26.27368 101.17174 26321 ft 491 kts 139°
2026-05-01 12:40 26.24985 101.19911 26512 ft 493 kts 139°
2026-05-01 12:41 26.22590 101.22659 26724 ft 495 kts 139°
2026-05-01 12:41 26.20190 101.25411 26943 ft 496 kts 139°
2026-05-01 12:41 26.17781 101.28173 27158 ft 498 kts 139°
2026-05-01 12:41 26.15363 101.30943 27357 ft 500 kts 139°
2026-05-01 12:42 26.12935 101.33722 27505 ft 502 kts 139°
2026-05-01 12:42 26.10494 101.36513 27670 ft 504 kts 139°
2026-05-01 12:42 26.08049 101.39309 27852 ft 505 kts 139°
2026-05-01 12:42 26.05598 101.42110 28053 ft 506 kts 139°
2026-05-01 12:43 26.03114 101.44948 28255 ft 506 kts 140°
2026-05-01 12:43 26.00682 101.47723 28379 ft 509 kts 140°
2026-05-01 12:43 25.98175 101.50582 28482 ft 510 kts 140°
2026-05-01 12:43 25.95694 101.53409 28632 ft 511 kts 140°
2026-05-01 12:44 25.93213 101.56235 28852 ft 510 kts 140°
2026-05-01 12:44 25.90772 101.59016 29086 ft 509 kts 140°
2026-05-01 12:44 25.85796 101.64677 29574 ft 509 kts 140°
2026-05-01 12:45 25.80852 101.70295 30042 ft 508 kts 140°
2026-05-01 12:45 25.78382 101.73099 30312 ft 507 kts 140°
2026-05-01 12:45 25.75915 101.75895 30580 ft 507 kts 140°
2026-05-01 12:46 25.73450 101.78687 30792 ft 507 kts 140°
2026-05-01 12:46 25.70980 101.81481 31032 ft 507 kts 140°
2026-05-01 12:46 25.68516 101.84269 31314 ft 506 kts 140°
2026-05-01 12:46 25.66048 101.87060 31591 ft 506 kts 140°
2026-05-01 12:47 25.63581 101.89848 31859 ft 507 kts 140°
2026-05-01 12:47 25.61116 101.92632 32136 ft 506 kts 140°
2026-05-01 12:47 25.58647 101.95421 32459 ft 506 kts 140°
2026-05-01 12:47 25.56182 101.98202 32749 ft 506 kts 140°
2026-05-01 12:48 25.53715 102.00982 33021 ft 507 kts 140°
2026-05-01 12:48 25.51242 102.03769 33346 ft 506 kts 140°
2026-05-01 12:48 25.48777 102.06544 33681 ft 506 kts 140°
2026-05-01 12:48 25.46309 102.09323 34015 ft 506 kts 140°
2026-05-01 12:49 25.43842 102.12097 34275 ft 506 kts 140°
2026-05-01 12:49 25.41375 102.14871 34625 ft 504 kts 140°
2026-05-01 12:49 25.38920 102.17630 35016 ft 502 kts 140°
2026-05-01 12:49 25.36469 102.20382 35238 ft 503 kts 140°
2026-05-01 12:50 25.34003 102.23147 35402 ft 506 kts 140°
2026-05-01 12:50 25.31537 102.25910 35629 ft 506 kts 140°
2026-05-01 12:50 25.29065 102.28681 35931 ft 505 kts 140°
2026-05-01 12:50 25.26599 102.31443 36231 ft 504 kts 140°
2026-05-01 12:51 25.24138 102.34199 36509 ft 504 kts 140°
2026-05-01 12:51 25.21677 102.36951 36750 ft 504 kts 139°
2026-05-01 12:51 25.16765 102.42442 37307 ft 502 kts 139°
2026-05-01 12:52 25.14307 102.45187 37586 ft 501 kts 140°
2026-05-01 12:52 25.09451 102.50720 38066 ft 505 kts 134°
2026-05-01 12:52 25.07337 102.53847 38155 ft 513 kts 126°
2026-05-01 12:53 25.02603 102.64432 38165 ft 513 kts 118°
2026-05-01 12:54 24.99547 102.71546 38171 ft 510 kts 118°
2026-05-01 12:54 24.94882 102.82047 38171 ft 507 kts 119°
2026-05-01 12:55 24.90237 102.92529 38166 ft 509 kts 118°
2026-05-01 12:56 24.87665 102.98419 38169 ft 510 kts 118°
2026-05-01 12:56 24.84589 103.05467 38160 ft 512 kts 118°
2026-05-01 12:57 24.81490 103.12542 38152 ft 514 kts 118°
2026-05-01 12:57 24.76811 103.23188 38145 ft 517 kts 118°
2026-05-01 12:58 24.73672 103.30318 38133 ft 518 kts 118°
2026-05-01 12:59 24.68955 103.41009 38127 ft 518 kts 118°
2026-05-01 12:59 24.64211 103.51738 38118 ft 517 kts 118°
2026-05-01 13:00 24.59489 103.62394 38108 ft 516 kts 118°
2026-05-01 13:01 24.54794 103.73023 38092 ft 516 kts 115°
2026-05-01 13:01 24.52694 103.80561 38108 ft 517 kts 104°
2026-05-01 13:02 24.51916 103.84367 38086 ft 518 kts 103°
2026-05-01 13:07 24.34671 104.65109 37957 ft 515 kts 104°
2026-05-01 13:07 24.33838 104.68922 37965 ft 514 kts 104°
2026-05-01 13:08 24.32173 104.76526 37948 ft 512 kts 104°
2026-05-01 13:08 24.30512 104.84096 37943 ft 510 kts 104°
2026-05-01 13:09 24.28851 104.91644 37949 ft 509 kts 104°
2026-05-01 13:09 24.27191 104.99172 37934 ft 507 kts 104°
2026-05-01 13:10 24.25532 105.06681 37934 ft 506 kts 104°
2026-05-01 13:10 24.23871 105.14173 37945 ft 506 kts 104°
2026-05-01 13:11 24.22208 105.21663 37948 ft 506 kts 105°
2026-05-01 13:11 24.20448 105.29128 37940 ft 506 kts 106°
2026-05-01 13:12 24.18620 105.36568 37948 ft 506 kts 106°
2026-05-01 13:12 24.16797 105.44025 37925 ft 507 kts 106°
2026-05-01 13:13 24.14989 105.51466 37935 ft 506 kts 106°
2026-05-01 13:13 24.13171 105.58944 37955 ft 504 kts 106°
2026-05-01 13:14 24.11362 105.66364 37943 ft 505 kts 106°
2026-05-01 13:14 24.09600 105.73799 37938 ft 504 kts 104°
2026-05-01 13:15 24.08118 105.81318 37937 ft 505 kts 102°
2026-05-01 13:15 24.06690 105.88832 37937 ft 505 kts 102°
2026-05-01 13:16 24.05219 105.96336 37936 ft 504 kts 103°
2026-05-01 13:16 24.03718 106.03832 37940 ft 504 kts 103°
2026-05-01 13:17 24.00700 106.18820 37941 ft 504 kts 103°
2026-05-01 13:18 23.98431 106.30054 37935 ft 505 kts 103°
2026-05-01 13:18 23.96915 106.37537 37941 ft 504 kts 103°
2026-05-01 13:19 23.95395 106.45019 37941 ft 504 kts 103°
2026-05-01 13:20 23.93110 106.56235 37947 ft 504 kts 103°
2026-05-01 13:20 23.91943 106.63778 37962 ft 503 kts 94°
2026-05-01 13:21 23.91259 106.75239 37959 ft 504 kts 93°
2026-05-01 13:21 23.90807 106.82888 37953 ft 504 kts 94°
2026-05-01 13:22 23.90310 106.90524 37966 ft 504 kts 94°
2026-05-01 13:22 23.89790 106.98216 37965 ft 504 kts 94°
2026-05-01 13:23 23.89271 107.05857 37966 ft 504 kts 94°
2026-05-01 13:23 23.88753 107.13459 37960 ft 505 kts 94°
2026-05-01 13:24 23.88228 107.21115 37969 ft 505 kts 94°
2026-05-01 13:25 23.87434 107.32583 37980 ft 505 kts 94°
2026-05-01 13:25 23.86900 107.40244 37972 ft 506 kts 95°
2026-05-01 13:26 23.86361 107.47906 37978 ft 506 kts 95°
2026-05-01 13:26 23.85818 107.55578 37982 ft 507 kts 95°
2026-05-01 13:27 23.85270 107.63265 37989 ft 508 kts 95°
2026-05-01 13:27 23.84440 107.74812 37989 ft 509 kts 95°
2026-05-01 13:28 23.83604 107.86408 37989 ft 511 kts 95°
2026-05-01 13:29 23.82831 108.02000 37993 ft 513 kts 94°
2026-05-01 13:31 23.81593 108.25368 37989 ft 515 kts 95°
2026-05-01 13:32 23.80548 108.43578 37991 ft 515 kts 95°
2026-05-01 13:33 23.79416 108.63103 37984 ft 515 kts 95°
2026-05-01 13:34 23.78494 108.78671 37991 ft 513 kts 96°
2026-05-01 13:35 23.77793 108.90324 37990 ft 512 kts 96°
2026-05-01 13:36 23.77082 109.02007 37995 ft 512 kts 96°
2026-05-01 13:36 23.76361 109.13630 37991 ft 511 kts 98°
2026-05-01 13:37 23.75127 109.21222 38001 ft 508 kts 106°
2026-05-01 13:37 23.73534 109.28740 38006 ft 508 kts 107°
2026-05-01 13:38 23.71166 109.40048 37999 ft 511 kts 106°
2026-05-01 13:39 23.69624 109.47617 38007 ft 512 kts 106°
2026-05-01 13:39 23.68082 109.55208 38011 ft 513 kts 106°
2026-05-01 13:40 23.66531 109.62807 38011 ft 514 kts 106°
2026-05-01 13:40 23.64975 109.70400 38018 ft 514 kts 106°
2026-05-01 13:41 23.63410 109.78016 38018 ft 514 kts 106°
2026-05-01 13:41 23.61841 109.85633 38025 ft 514 kts 105°
2026-05-01 13:42 23.60269 109.93240 38048 ft 515 kts 105°
2026-05-01 13:42 23.58692 110.00856 38021 ft 515 kts 105°
2026-05-01 13:43 23.57111 110.08471 38028 ft 514 kts 105°
2026-05-01 13:43 23.55533 110.16054 38033 ft 514 kts 105°
2026-05-01 13:44 23.53947 110.23652 38034 ft 513 kts 105°
2026-05-01 13:44 23.52365 110.31220 38027 ft 513 kts 105°
2026-05-01 13:45 23.50782 110.38796 38031 ft 512 kts 105°
2026-05-01 13:45 23.49244 110.46364 38032 ft 512 kts 105°
2026-05-01 13:46 23.47701 110.53988 38038 ft 511 kts 105°
2026-05-01 13:46 23.46160 110.61549 38039 ft 511 kts 105°
2026-05-01 13:47 23.44615 110.69099 38037 ft 510 kts 105°
2026-05-01 13:47 23.43055 110.76632 38041 ft 510 kts 105°
2026-05-01 13:48 23.41458 110.84145 38040 ft 509 kts 105°
2026-05-01 13:48 23.39856 110.91657 38046 ft 508 kts 105°
2026-05-01 13:49 23.38263 110.99141 38038 ft 508 kts 105°
2026-05-01 13:49 23.36667 111.06629 38048 ft 507 kts 105°
2026-05-01 13:50 23.35071 111.14099 38047 ft 507 kts 105°
2026-05-01 13:50 23.33520 111.21587 38051 ft 507 kts 104°
2026-05-01 13:51 23.32022 111.29068 38048 ft 506 kts 104°
2026-05-01 13:51 23.30512 111.36552 38065 ft 506 kts 104°
2026-05-01 13:52 23.28992 111.44020 38046 ft 505 kts 104°
2026-05-01 13:52 23.27473 111.51463 38056 ft 504 kts 104°
2026-05-01 13:53 23.25917 111.58899 38051 ft 504 kts 105°
2026-05-01 13:53 23.23522 111.70013 38063 ft 503 kts 105°
2026-05-01 13:54 23.21935 111.77409 38060 ft 503 kts 105°
2026-05-01 13:54 23.20351 111.84809 38065 ft 502 kts 105°
2026-05-01 13:55 23.18811 111.92216 38081 ft 502 kts 104°
2026-05-01 13:55 23.17283 111.99625 38070 ft 502 kts 104°
2026-05-01 13:56 23.15745 112.07032 38063 ft 502 kts 104°
2026-05-01 13:56 23.14201 112.14431 38074 ft 502 kts 104°
2026-05-01 13:57 23.12905 112.20622 38075 ft 502 kts 104°
2026-05-01 13:57 23.11092 112.29266 38077 ft 502 kts 104°
2026-05-01 13:58 23.09536 112.36672 38089 ft 502 kts 104°
2026-05-01 13:58 23.07978 112.44068 38086 ft 503 kts 104°
2026-05-01 13:59 23.06611 112.51519 38078 ft 504 kts 97°
2026-05-01 13:59 23.06122 112.59115 38088 ft 504 kts 93°
2026-05-01 14:00 23.05956 112.62868 38043 ft 490 kts 93°
2026-05-01 14:00 23.05770 112.66512 37905 ft 477 kts 96°
2026-05-01 14:00 23.05030 112.69795 37756 ft 461 kts 117°
2026-05-01 14:00 23.03393 112.72715 37546 ft 444 kts 134°
2026-05-01 14:01 23.01189 112.75002 37082 ft 434 kts 149°
2026-05-01 14:01 22.98601 112.76610 36551 ft 425 kts 163°
2026-05-01 14:01 22.95803 112.77491 36095 ft 415 kts 176°
2026-05-01 14:01 22.92966 112.77629 35693 ft 403 kts 189°
2026-05-01 14:02 22.90221 112.77079 34837 ft 405 kts 202°
2026-05-01 14:02 22.87647 112.75802 33884 ft 411 kts 216°
2026-05-01 14:02 22.85420 112.73881 33206 ft 407 kts 228°